Weather reports worldwide

Advertisment
Europlatform, Netherlands (6321): temperature & dewpoint: 11.10.2019 23:00:00 - 17.10.2019 23:00:00 (CEST)Europlatform, Netherlands (6321): water temperature: 11.10.2019 23:00:00 - 17.10.2019 23:00:00 (CEST)Europlatform, Netherlands (6321): wind speed & gusts: 11.10.2019 23:00:00 - 17.10.2019 23:00:00 (CEST)Europlatform, Netherlands (6321): wind direction: 11.10.2019 23:00:00 - 17.10.2019 23:00:00 (CEST)Europlatform, Netherlands (6321): reduced air pressure: 11.10.2019 23:00:00 - 17.10.2019 23:00:00 (CEST)Europlatform, Netherlands (6321): visibility: 11.10.2019 23:00:00 - 17.10.2019 23:00:00 (CEST)
Date & Time tt [°C] td [°C] tw [°C] ff [km/h] ff [kn] fx [km/h] fx [kn] dd ppp [hPa] vv [km]
17.10.2019 23:00:00 14,9 11,4 13,6 41 22 50 27 S 1006,1 10
17.10.2019 22:00:00 15,0 10,5 14,0 41 22 43 23 SSE 1006,3 10
17.10.2019 21:00:00 15,2 9,7 14,0 41 22 43 23 S 1006,5 10
17.10.2019 20:00:00 15,4 10,3 14,0 37 20 40 21 S 1007,2 10
17.10.2019 19:00:00 15,3 9,3 14,0 35 19 36 19 S 1007,3 10
17.10.2019 18:00:00 15,0 9,7 14,0 31 17 36 19 S 1007,2 10
17.10.2019 17:00:00 15,1 9,1 14,0 34 18 36 19 S 1007,7 10
17.10.2019 16:00:00 14,5 9,7 14,0 34 18 40 21 S 1008,0 10
17.10.2019 15:00:00 14,3 10,2 14,0 39 21 43 23 S 1008,3 10
17.10.2019 14:00:00 13,7 10,5 14,0 35 19 40 21 S 1008,3 10
17.10.2019 13:00:00 12,8 10,0 13,7 18 10 47 25 SSW 1008,8 10
17.10.2019 12:00:00 14,2 10,3 14,0 35 19 40 21 S 1008,6 10
17.10.2019 11:00:00 13,7 10,6 14,0 35 19 40 21 S 1008,6 10
17.10.2019 10:00:00 14,3 8,8 14,0 29 16 32 18 S 1008,6 10
17.10.2019 09:00:00 14,6 8,4 14,0 21 11 22 12 S 1008,4 10
17.10.2019 08:00:00 14,4 8,0 14,0 16 9 22 12 SSW 1008,0 10
17.10.2019 07:00:00 14,2 8,3 14,0 13 7 18 10 SW 1007,5 10
17.10.2019 06:00:00 14,1 8,3 14,0 16 9 18 10 W 1007,0 10
17.10.2019 05:00:00 14,0 9,1 14,0 9 5 22 12 WSW 1006,8 10
17.10.2019 04:00:00 12,7 11,4 13,7 9 5 25 14 WNW 1006,7 10
17.10.2019 03:00:00 13,4 10,1 13,7 21 11 25 14 W 1006,4 10
17.10.2019 02:00:00 13,6 10,6 14,0 15 8 22 12 W 1005,8 10
17.10.2019 01:00:00 13,4 11,0 13,7 21 11 25 14 W 1005,3 10
17.10.2019 00:00:00 13,2 11,1 14,0 24 13 25 14 W 1005,2 8
16.10.2019 23:00:00 12,9 12,1 14,0 22 12 29 16 W 1005,0 6
16.10.2019 22:00:00 13,3 12,7 14,0 26 14 25 14 WSW 1004,7 3,3
16.10.2019 21:00:00 13,4 13,1 14,0 22 12 29 16 WSW 1004,4 2,8
16.10.2019 20:00:00 14,2 13,7 14,0 29 16 40 21 SW 1004,4 3,3
16.10.2019 19:00:00 14,8 14,1 13,7 41 22 50 27 SSW 1004,1 6
16.10.2019 18:00:00 15,5 14,6 14,0 41 22 47 25 S 1003,7 10
16.10.2019 17:00:00 15,8 14,7 14,0 44 24 47 25 S 1003,7 10
16.10.2019 16:00:00 15,4 14,4 14,0 46 25 50 27 S 1003,7 10
16.10.2019 15:00:00 15,0 14,3 14,0 44 24 47 25 S 1003,6 3,7
16.10.2019 14:00:00 14,5 13,5 13,8 46 25 50 27 S 1003,5 3,7
16.10.2019 13:00:00 14,0 12,8 14,0 48 26 54 29 SSE 1004,0 7
16.10.2019 12:00:00 13,5 12,3 14,0 50 27 54 29 SSE 1004,4 10
16.10.2019 11:00:00 13,6 11,8 14,0 48 26 54 29 SSE 1005,1 10
16.10.2019 10:00:00 13,1 11,0 14,0 46 25 50 27 SSE 1005,4 10
16.10.2019 09:00:00 13,2 10,8 14,0 41 22 43 23 SSE 1005,6 10
16.10.2019 08:00:00 13,3 11,1 14,0 39 21 43 23 SSE 1005,6 10
16.10.2019 07:00:00 14,0 11,9 14,0 35 19 40 21 S 1006,0 10
16.10.2019 06:00:00 14,8 10,9 14,0 37 20 40 21 SSW 1006,3 10
16.10.2019 05:00:00 14,8 11,1 14,0 37 20 43 23 SW 1006,6 10
16.10.2019 04:00:00 14,6 12,0 14,0 37 20 40 21 S 1006,8 10
16.10.2019 03:00:00 14,8 11,5 14,0 35 19 40 21 SSW 1007,0 10
16.10.2019 02:00:00 15,0 11,2 14,0 35 19 36 19 SSW 1007,1 10
16.10.2019 01:00:00 15,1 10,6 14,0 35 19 40 21 SSW 1007,1 10
16.10.2019 00:00:00 15,1 11,0 14,0 35 19 36 19 SSW 1007,1 10
15.10.2019 23:00:00 15,4 11,0 14,0 41 22 43 23 SW 1007,1 10
15.10.2019 22:00:00 15,4 11,4 14,0 41 22 43 23 SSW 1006,9 10
15.10.2019 21:00:00 14,9 12,0 14,0 34 18 36 19 WSW 1006,3 10
15.10.2019 20:00:00 14,4 11,9 14,0 34 18 36 19 SSW 1006,3 10
15.10.2019 19:00:00 15,2 12,4 14,0 31 17 36 19 SW 1005,8 10
15.10.2019 18:00:00 15,6 12,3 14,0 35 19 36 19 S 1005,2 10
15.10.2019 17:00:00 14,8 12,7 14,0 35 19 36 19 SSW 1005,0 10
15.10.2019 16:00:00 15,2 12,7 14,0 31 17 36 19 S 1005,1 10
15.10.2019 15:00:00 15,1 12,8 14,0 34 18 36 19 S 1005,0 10
15.10.2019 14:00:00 15,1 12,7 14,0 29 16 32 18 S 1005,0 10
15.10.2019 13:00:00 15,2 13,0 14,0 31 17 36 19 S 1005,0 10
15.10.2019 12:00:00 15,3 13,0 14,0 34 18 36 19 SSW 1005,1 10
15.10.2019 11:00:00 15,2 13,0 14,0 35 19 40 21 SSW 1004,7 10
15.10.2019 10:00:00 15,2 13,5 14,0 39 21 43 23 S 1004,4 10
15.10.2019 09:00:00 15,3 13,3 14,0 42 23 43 23 S 1004,1 10
15.10.2019 08:00:00 15,4 13,5 14,0 39 21 43 23 S 1003,5 10
15.10.2019 07:00:00 15,5 13,6 14,0 39 21 43 23 S 1003,4 10
15.10.2019 06:00:00 15,9 13,7 14,0 42 23 47 25 S 1003,4 10
15.10.2019 05:00:00 15,9 13,8 14,0 42 23 47 25 S 1003,0 10
15.10.2019 04:00:00 16,1 13,6 14,0 42 23 47 25 S 1003,0 10
15.10.2019 03:00:00 16,3 13,8 14,0 41 22 47 25 S 1003,0 10
15.10.2019 02:00:00 16,6 13,9 14,0 39 21 43 23 S 1003,3 10
15.10.2019 01:00:00 16,6 14,2 14,0 35 19 36 19 S 1003,0 10
15.10.2019 00:00:00 16,9 13,9 14,0 31 17 32 18 SSE 1002,6 10
14.10.2019 23:00:00 16,7 14,5 14,0 35 19 61 33 SE 1002,7 8
14.10.2019 22:00:00 17,4 15,4 14,0 28 15 36 19 ESE 1004,7 10
14.10.2019 21:00:00 17,2 15,5 14,0 29 16 32 18 ESE 1004,1 10
14.10.2019 20:00:00 16,7 15,4 14,0 37 20 36 19 E 1003,9 10
14.10.2019 19:00:00 16,2 15,0 14,0 31 17 36 19 E 1004,7 9
14.10.2019 18:00:00 15,8 14,6 14,0 37 20 40 21 E 1004,8 9
14.10.2019 17:00:00 15,2 13,9 14,0 37 20 47 25 E 1005,4 10
14.10.2019 16:00:00 14,7 12,9 14,0 42 23 47 25 ENE 1006,5 10
14.10.2019 15:00:00 14,5 12,3 14,0 39 21 43 23 ENE 1007,6 10
14.10.2019 14:00:00 14,2 10,4 14,0 39 21 40 21 NE 1008,7 10
14.10.2019 13:00:00 14,0 11,2 13,8 44 24 50 27 ENE 1009,8 8
14.10.2019 12:00:00 13,6 11,3 14,0 22 12 29 16 NE 1011,0 7
14.10.2019 11:00:00 14,4 10,4 14,0 24 13 25 14 E 1011,9 10
14.10.2019 10:00:00 14,6 10,5 14,0 18 10 22 12 E 1011,9 10
14.10.2019 09:00:00 14,7 9,2 14,0 13 7 14 8 E 1012,0 10
14.10.2019 08:00:00 14,7 8,9 14,0 4 2 7 4 - 1012,0 10
14.10.2019 07:00:00 14,6 8,5 14,0 4 2 11 6 - 1012,5 10
14.10.2019 06:00:00 14,7 8,7 14,0 8 4 14 8 WSW 1012,1 10
14.10.2019 05:00:00 14,7 8,5 14,0 15 8 18 10 W 1011,8 10
14.10.2019 04:00:00 14,6 8,8 14,0 18 10 25 14 WSW 1012,2 10
14.10.2019 03:00:00 14,6 7,7 14,0 26 14 32 18 W 1012,4 10
14.10.2019 02:00:00 14,5 9,0 14,0 34 18 40 21 W 1012,1 10
14.10.2019 01:00:00 14,7 9,2 14,0 42 23 50 27 W 1011,4 10
14.10.2019 00:00:00 15,2 9,7 14,0 48 26 54 29 WSW 1010,7 10
13.10.2019 23:00:00 15,9 10,9 14,0 46 25 54 29 WSW 1009,7 10
13.10.2019 22:00:00 16,3 12,0 14,0 52 28 61 33 SW 1008,8 10
13.10.2019 21:00:00 16,5 13,3 14,0 50 27 54 29 SW 1007,6 10
13.10.2019 20:00:00 16,5 13,7 14,0 52 28 58 31 SW 1006,5 10
13.10.2019 19:00:00 16,6 13,8 14,0 50 27 58 31 SW 1005,6 10
13.10.2019 18:00:00 16,9 15,3 14,0 55 30 61 33 SSW 1005,1 10
13.10.2019 17:00:00 18,0 15,3 14,0 48 26 54 29 SSW 1004,1 10
13.10.2019 16:00:00 17,6 15,9 13,7 48 26 54 29 SSW 1003,6 10
13.10.2019 15:00:00 17,2 15,7 14,0 37 20 43 23 S 1003,5 10
13.10.2019 14:00:00 17,0 15,7 14,0 37 20 40 21 S 1003,6 10
13.10.2019 13:00:00 16,6 15,5 14,0 34 18 40 21 SSE 1003,4 10
13.10.2019 12:00:00 16,6 15,3 14,0 37 20 43 23 SSE 1003,9 10
13.10.2019 11:00:00 16,2 15,3 14,0 39 21 43 23 SSE 1004,6 9
13.10.2019 10:00:00 16,3 14,6 14,0 35 19 43 23 S 1004,6 10
13.10.2019 09:00:00 15,8 14,4 14,0 37 20 40 21 SSE 1004,6 10
13.10.2019 08:00:00 15,8 14,5 14,0 29 16 32 18 SSE 1004,9 10
13.10.2019 07:00:00 16,2 14,4 14,0 29 16 32 18 SSE 1005,3 10
13.10.2019 06:00:00 15,5 14,3 14,0 24 13 29 16 SSE 1006,2 6
13.10.2019 05:00:00 14,5 13,9 14,0 24 13 29 16 SE 1006,2 3,6
13.10.2019 04:00:00 14,2 13,3 14,0 22 12 25 14 ESE 1006,7 4,9
13.10.2019 03:00:00 13,7 12,6 14,0 22 12 32 18 E 1007,8 8
13.10.2019 02:00:00 13,6 12,4 14,0 29 16 32 18 E 1007,5 10
13.10.2019 01:00:00 12,8 12,0 13,8 21 11 22 12 E 1008,7 4,9
13.10.2019 00:00:00 12,6 12,0 13,8 21 11 22 12 E 1009,0 3,8
12.10.2019 23:00:00 12,6 12,0 13,9 22 12 22 12 ESE 1009,3 3,2
12.10.2019 22:00:00 12,6 11,6 14,0 18 10 22 12 ESE 1009,2 10
12.10.2019 21:00:00 12,1 11,4 13,9 15 8 18 10 E 1009,3 6
12.10.2019 20:00:00 11,9 11,3 14,0 8 4 11 6 E 1009,6 5
12.10.2019 19:00:00 12,0 11,2 13,8 2 1 4 2 - 1009,3 7
12.10.2019 18:00:00 12,2 11,2 14,0 5 3 22 12 W 1009,5 3,1
12.10.2019 17:00:00 12,6 11,6 14,0 9 5 14 8 S 1009,5 10
12.10.2019 16:00:00 13,0 11,2 14,0 9 5 18 10 SW 1009,8 10
12.10.2019 15:00:00 13,0 10,8 14,0 16 9 18 10 SSW 1009,9 10
12.10.2019 14:00:00 12,8 10,0 14,0 16 9 22 12 SW 1010,0 10
12.10.2019 13:00:00 13,0 9,3 14,0 16 9 25 14 SSW 1009,9 10
12.10.2019 12:00:00 12,7 10,4 14,0 24 13 29 16 SW 1009,4 10
12.10.2019 11:00:00 13,4 8,7 14,0 21 11 25 14 SW 1008,9 10
12.10.2019 10:00:00 13,6 8,6 14,0 26 14 29 16 SW 1008,3 10
12.10.2019 09:00:00 13,6 9,5 14,0 22 12 29 16 SW 1007,7 10
12.10.2019 08:00:00 12,9 10,5 14,0 22 12 25 14 SW 1007,2 10
12.10.2019 07:00:00 12,3 10,6 13,9 24 13 29 16 WSW 1007,0 9
12.10.2019 06:00:00 11,9 10,8 14,0 34 18 36 19 W 1007,0 2,9
12.10.2019 05:00:00 12,2 11,1 13,9 24 13 36 19 W 1006,7 3,5
12.10.2019 04:00:00 12,5 11,5 14,0 28 15 40 21 W 1006,8 10
12.10.2019 03:00:00 13,3 10,0 14,0 41 22 43 23 W 1006,5 10
12.10.2019 02:00:00 13,4 10,9 14,0 41 22 47 25 W 1006,3 4,2
12.10.2019 01:00:00 14,2 13,1 14,0 42 23 79 43 WSW 1006,3 2,7
12.10.2019 00:00:00 15,2 14,6 14,0 59 32 76 41 SSW 1006,2 8
11.10.2019 23:00:00 16,9 14,5 14,0 52 28 68 37 SSW 1006,2 9

tt = temperature
td = dewpoint
tw = water temperature
ff = wind speed
fx = gusts
dd = wind direction
ppp = reduced air pressure
vv = visibility

Next stations